Regional Weather Roundup
Issued by NWS

Home | Current Version | Previous Version | Text Only | Print | Product List | Glossary Off
Versions: 1 2 3 4 5 6 7 8 9 10 11 12 13 14 15 16 17 18 19 20 21 22 23 24 25 26 27 28 29 30 31 32 33 34 35 36 37 38 39 40 41 42 43 44 45 46 47 48 49 50

000
ASUS43 KIND 221809
RWRIN

WEATHER ROUNDUP FOR INDIANA
NATIONAL WEATHER SERVICE INDIANAPOLIS IN
200 PM EDT MON SEP 22 2014

NOTE: "FAIR" INDICATES FEW OR NO CLOUDS BELOW 12,000 FEET WITH NO
SIGNIFICANT WEATHER AND/OR OBSTRUCTIONS TO VISIBILITY.

* - STATION DOES NOT REPORT WEATHER SUCH AS PRECIPITATION OR FOG.

+ - STATION NOT QUALITY CONTROLLED BY THE NATIONAL WEATHER SERVICE.
    USE DATA WITH CAUTION...ESPECIALLY DEWPOINT AND RELATIVE
    HUMIDITY OBSERVATIONS.

INZ001>003-010>013-019-020-221900-
NORTHWEST INDIANA

CITY           SKY/WX    TMP DP  RH WIND       PRES   REMARKS
GARY /AIRPORT/ MOSUNNY   61  48  63 N7        30.30S
KNOX *+        SUNNY     61  44  53 N8        30.26F
LA PORTE +     SUNNY     59  43  55 N6        30.28F
6HR MIN TEMP:  45; 6HR MAX TEMP:  59;

MICHIGAN CITY+ MOSUNNY   59  45  58 N9        30.29S
MONTICELLO +   SUNNY     62  46  56 N9        30.27F
RENSSELAER +   SUNNY     61  45  55 NW7       30.28F
VALPARAISO     SUNNY     62  44  51 N8        30.28F
6HR MIN TEMP:  48; 6HR MAX TEMP:  62;


$$

LMZ046-743>745-221900-
SOUTHERN LAKE MICHIGAN

STATION/POSITION TIME  TEMP WIND        PRES
                       AIR  DIR/SP/G
                 (UTC) (F)  (DEG/KT/KT) (MB)
MICHIGAN CITY    1800   58  330/  8/ 11   N/A

$$

INZ004-005-014>016-021>024-221900-
NORTH CENTRAL INDIANA

CITY           SKY/WX    TMP DP  RH WIND       PRES   REMARKS
ELKHART        SUNNY     63  41  45 N7        30.26F
GOSHEN         SUNNY    N/A N/A N/A NW8       30.26S
LOGANSPORT +   SUNNY     61  41  48 NW5       30.28S
PERU/GRISSOM   SUNNY     60  46  60 NW6       30.26F
6HR MIN TEMP:  44; 6HR MAX TEMP:  60;

ROCHESTER +    SUNNY     63  43  48 NW9       30.27F
SOUTH BEND     SUNNY     63  44  50 MISG      30.27S
6HR MIN TEMP:  41; 6HR MAX TEMP:  63;

WARSAW +       SUNNY     59  43  55 NW6       30.26F

$$

INZ006>009-017-018-025>027-221900-
NORTHEAST INDIANA

CITY           SKY/WX    TMP DP  RH WIND       PRES   REMARKS
ANGOLA *+      SUNNY     61  50  67 N10       30.24S
AUBURN +       SUNNY     61  37  41 NW9       30.25F
FORT WAYNE     MOSUNNY   59  42  53 NW6       30.26F
6HR MIN TEMP:  45; 6HR MAX TEMP:  59;

HUNTINGTON +   SUNNY     58  42  54 NW10      30.25F
6HR MIN TEMP:  45; 6HR MAX TEMP:  58;


$$

INZ028-029-035-036-043>045-051>053-221900-
WEST CENTRAL INDIANA

CITY           SKY/WX    TMP DP  RH WIND       PRES   REMARKS
GREENCASTLE +  SUNNY     61  43  51 N10       30.27F
LAFAYETTE      SUNNY     62  46  55 N8        30.27F
6HR MIN TEMP:  43; 6HR MAX TEMP:  62;

TERRE HAUTE    SUNNY     65  45  48 NW7       30.27S
6HR MIN TEMP:  48; 6HR MAX TEMP:  65;


$$

INZ030>032-037>040-046>048-054>057-064-065-221900-
CENTRAL INDIANA

CITY           SKY/WX    TMP DP  RH WIND       PRES   REMARKS
ANDERSON       SUNNY     59  39  47 N6        30.27S
CP ATTERBURY + SUNNY     61  43  51 N3        30.26S
COLUMBUS       SUNNY     59  41  51 N6        30.27S
FRANKFORT +    SUNNY     62  45  52 N9        30.29S
INDIANAPOLIS   MOSUNNY   62  42  47 N12       30.26S
6HR MIN TEMP:  48; 6HR MAX TEMP:  62;

-EAGLE CREEK   SUNNY     61  41  47 NW9       30.26S
6HR MIN TEMP:  47; 6HR MAX TEMP:  61;

KOKOMO *+      SUNNY     61  43  51 NW3       30.27S
MARION +       SUNNY     58  38  47 N6        30.26F
MT COMFORT *+  SUNNY     61  32  33 N8        30.27S
SHELBYVILLE    SUNNY     62  41  46 VRB3      30.25F
6HR MIN TEMP:  46; 6HR MAX TEMP:  62;

ZIONSVILLE +   SUNNY     60  41  48 N12       30.28S
6HR MIN TEMP:  42; 6HR MAX TEMP:  60;


$$

INZ033-034-041-042-049-050-058-059-221900-
EAST CENTRAL INDIANA

CITY           SKY/WX    TMP DP  RH WIND       PRES   REMARKS
MUNCIE         SUNNY     59  38  45 VRB6      30.25F
6HR MIN TEMP:  42; 6HR MAX TEMP:  59;


$$

INZ060-061-067>069-081>083-085>088-221900-
SOUTHWEST INDIANA

CITY           SKY/WX    TMP DP  RH WIND       PRES   REMARKS
EVANSVILLE     SUNNY     67  45  45 NW6       30.26F
6HR MIN TEMP:  53; 6HR MAX TEMP:  68;

WASHINGTON +   SUNNY     66  44  45 NE6       30.25F
6HR MIN TEMP:  46; 6HR MAX TEMP:  67;


$$

INZ062-063-066-070>080-084-089>092-221900-
SOUTH CENTRAL AND SOUTHEAST INDIANA

CITY           SKY/WX    TMP DP  RH WIND       PRES   REMARKS
BLOOMINGTON    SUNNY     63  44  50 N5        30.26S
6HR MIN TEMP:  48; 6HR MAX TEMP:  64;


$$



USA.gov is the U.S. government's official web portal to all federal, state and local government web resources and services.